Погода в Деревне Первый Воин

Россия / Орловская область     53°10′51″N   36°24′31″E
темп.,
°C
ветер,
м/с
пор.,
м/с
влажн.,
%
обл.,
%
осадки,
мм/ч
давл.,
гПа
погр.,
м
27 января, чт
чт2700:00−13сз119995 0.1 10199
03:00−15з11100100 0.1 101910
06:00−13юз1197100 0.1 101815
09:00−13ююз229897 0.1 101951
12:00−11ююз3495100 0.0 1018155
15:00−10ю3694100 0.0 1017265
18:00−14ю379750 0.0 101699
21:00−15ю4119652 0.0 1015165
28 января, пт
пт2800:00−12ю51295100 0.0 1013246
03:00−10ю6139494 0.2 1011319
06:00−10ю61294100 0.1 1009296
09:00−8ююв61495100 0.3 1008355
12:00−5ю61395100 0.7 1006476
15:00−3ю61296100 1.4 1004540
18:00−2ю51196100 0.5 1003410
21:00−2ююз4109694 0.8 1003394
29 января, сб
сб2900:00−1ююз4995100 0.3 1003326
03:00−2ююз4109699 0.3 1003301
06:00−3ююз499792 0.1 1003249
09:00−4ююз3797100 0.4 1004164
12:00−2ююз3495100 0.1 1004238
15:00−1зюз2397100 0.3 1004301
18:00−4з229996 0.3 100624
21:00−4зсз5109591 0.7 1007335
30 января, вс
вс3000:00−9з489772 0.1 1008148
03:00−8юз3797100 0.2 1007181
06:00−7ююз51293100 0.1 1004386
09:00−6ююз81889100 0.1 1000577
12:00−4ююз101894100 1.7 995976
15:00−4ююз101894100 3.5 992841
18:00−2ююз9169398 1.1 990654
21:00−2ююз71493100 1.4 988550
31 января, пн
пн3100:00−1ююз61196100 1.3 987584
03:00−2ю7149198 1.4 986667
06:00−2ю71496100 1.3 983853
09:00−1ю61297100 2.8 983663
12:00−1юз5896100 0.6 984522
15:00−1з6994100 0.9 986710
18:00−3з61295100 0.3 990620
21:00−6з7139195 0.6 994466